Location: ??
(34.9170°N, 135.5016°E)
Time: 18:13:35
(UTC+00:00)

Uosat 12 SS-18 rocket - Pass Details

Date: 29 October 2020
Orbit: 601 x 1384 km, 64.6° (Epoch: 29 November)

Event Time Altitude Azimuth Distance (km) Brightness Sun altitude
Rises 20:23:42 0° 216° (SW) 3,258 7.5 -11.5°
Reaches altitude 10° 20:26:17 10° 220° (SW) 2,228 6.6 -11.0°
Maximum altitude 20:31:11 61° 300° (WNW) 746 4.2 -10.0°
Drops below altitude 10° 20:35:32 10° 22° (NNE) 1,978 6.8 -9.1°
Sets 20:37:43 0° 26° (NNE) 2,860 7.7 -8.7°
